Location: Escondido Hill
(38.9119°N, 104.7815°W)
Time: 18:31:49
(UTC-06:00)

ISS - Visible Passes

Search period start: 24 April 2019 00:00
Search period end: 04 May 2019 00:00
Orbit: 408 x 410 km, 51.6° (Epoch: 25 April)

Date Brightness Start Highest point End Pass type
(mag) Time Alt. Az. Time Alt. Az. Time Alt. Az.
26 Apr -1.1 05:14:13 10° SSE 05:16:02 14° SE 05:17:50 10° E visible
28 Apr -2.7 05:07:50 12° SSW 05:10:39 37° SE 05:13:44 10° ENE visible
29 Apr -1.8 04:19:10 18° SSE 04:19:57 19° SE 04:22:24 10° E visible
30 Apr -3.8 05:03:09 19° WSW 05:05:24 76° NW 05:08:42 10° NE visible
01 May -3.5 04:14:17 52° SSE 04:14:33 54° SE 04:17:47 10° ENE visible
02 May -1.3 03:25:21 18° E 03:25:21 18° E 03:26:37 10° ENE visible
02 May -2.5 04:58:06 15° W 05:00:17 31° NNW 05:03:17 10° NE visible
03 May -3.5 04:09:05 53° NW 04:09:17 54° NW 04:12:32 10° NE visible
